Time,TemperatureF,DewpointF,PressureIn,WindDirection,WindDirectionDegrees,WindSpeedMPH,WindSpeedGustMPH,Humidity,HourlyPrecipIn,Conditions,Clouds,dailyrainin,SoftwareType,DateUTC
2013-03-04 00:03:00,31.0,27.0,30.20,South,180,0.4,0.4,85,0.00,,,0.00,WUHU216HW,2013-03-03 23:03:00,
2013-03-04 00:08:00,31.0,27.0,30.20,SSW,203,0.7,0.7,85,0.00,,,0.00,WUHU216HW,2013-03-03 23:08:00,
2013-03-04 00:13:00,31.0,27.0,30.20,North,0,0.0,0.7,85,0.00,,,0.00,WUHU216HW,2013-03-03 23:13:00,
2013-03-04 00:18:00,31.0,27.0,30.20,NNW,338,0.0,0.4,85,0.00,,,0.00,WUHU216HW,2013-03-03 23:18:00,
2013-03-04 00:23:00,30.8,26.8,30.20,NNW,338,0.4,0.4,85,0.00,,,0.00,WUHU216HW,2013-03-03 23:23:00,
2013-03-04 00:28:00,31.0,27.0,30.20,SSW,203,0.7,0.7,85,0.00,,,0.00,WUHU216HW,2013-03-03 23:28:00,
2013-03-04 00:33:00,31.0,27.0,30.20,SSW,203,0.4,0.9,85,0.00,,,0.00,WUHU216HW,2013-03-03 23:33:00,
2013-03-04 00:38:00,31.0,27.0,30.20,SW,225,0.4,0.9,85,0.00,,,0.00,WUHU216HW,2013-03-03 23:38:00,
2013-03-04 00:43:00,31.0,27.0,30.20,NNW,338,0.7,0.7,85,0.00,,,0.00,WUHU216HW,2013-03-03 23:43:00,
2013-03-04 00:48:00,31.0,27.0,30.21,SW,225,0.4,0.7,85,0.00,,,0.00,WUHU216HW,2013-03-03 23:48:00,
2013-03-04 00:53:00,31.0,27.0,30.20,SW,225,0.0,0.7,85,0.00,,,0.00,WUHU216HW,2013-03-03 23:53:00,
2013-03-04 00:58:00,30.8,27.1,30.20,SW,225,0.0,0.4,86,0.00,,,0.00,WUHU216HW,2013-03-03 23:58:00,
2013-03-04 01:03:00,30.8,27.1,30.20,SE,135,0.2,0.4,86,0.00,,,0.00,WUHU216HW,2013-03-04 00:03:00,
2013-03-04 01:08:00,30.8,27.1,30.20,SE,135,0.0,0.4,86,0.00,,,0.00,WUHU216HW,2013-03-04 00:08:00,
2013-03-04 01:13:00,31.0,27.3,30.20,SE,135,0.0,0.0,86,0.00,,,0.00,WUHU216HW,2013-03-04 00:13:00,
2013-03-04 01:18:00,31.0,27.3,30.20,SE,135,0.0,0.0,86,0.00,,,0.00,WUHU216HW,2013-03-04 00:18:00,
2013-03-04 01:23:00,31.0,27.3,30.20,SE,135,0.4,0.4,86,0.00,,,0.00,WUHU216HW,2013-03-04 00:23:00,
2013-03-04 01:28:00,31.0,27.3,30.20,NNE,23,0.4,0.4,86,0.00,,,0.00,WUHU216HW,2013-03-04 00:28:00,
2013-03-04 01:33:00,31.0,27.3,30.20,NE,45,0.0,0.4,86,0.00,,,0.00,WUHU216HW,2013-03-04 00:33:00,
2013-03-04 01:38:00,31.0,27.3,30.20,NE,45,0.0,0.4,86,0.00,,,0.00,WUHU216HW,2013-03-04 00:38:00,
2013-03-04 01:43:00,31.0,27.3,30.20,NE,45,0.4,0.4,86,0.00,,,0.00,WUHU216HW,2013-03-04 00:43:00,
2013-03-04 01:49:00,30.8,27.1,30.20,NNE,23,0.0,0.4,86,0.00,,,0.00,WUHU216HW,2013-03-04 00:49:00,
2013-03-04 01:54:00,30.8,27.1,30.20,ESE,113,0.7,0.7,86,0.00,,,0.00,WUHU216HW,2013-03-04 00:54:00,
2013-03-04 01:59:00,30.8,27.1,30.20,ESE,113,0.4,1.1,86,0.00,,,0.00,WUHU216HW,2013-03-04 00:59:00,
2013-03-04 02:04:00,30.8,27.1,30.20,ESE,113,0.0,1.1,86,0.00,,,0.00,WUHU216HW,2013-03-04 01:04:00,
2013-03-04 02:09:00,31.0,27.3,30.20,ESE,113,0.4,0.4,86,0.00,,,0.00,WUHU216HW,2013-03-04 01:09:00,
2013-03-04 02:14:00,31.0,27.3,30.20,ESE,113,0.2,0.4,86,0.00,,,0.00,WUHU216HW,2013-03-04 01:14:00,
2013-03-04 02:19:00,31.0,27.3,30.20,SE,135,0.4,0.4,86,0.00,,,0.00,WUHU216HW,2013-03-04 01:19:00,
2013-03-04 02:24:00,31.0,27.3,30.20,SE,135,0.2,0.7,86,0.00,,,0.00,WUHU216HW,2013-03-04 01:24:00,
2013-03-04 02:29:00,31.0,27.3,30.20,SE,135,0.0,0.7,86,0.00,,,0.00,WUHU216HW,2013-03-04 01:29:00,
2013-03-04 02:34:00,31.0,27.3,30.20,SE,135,0.4,0.4,86,0.00,,,0.00,WUHU216HW,2013-03-04 01:34:00,
2013-03-04 02:39:00,31.0,27.3,30.20,SSW,203,0.7,0.7,86,0.00,,,0.00,WUHU216HW,2013-03-04 01:39:00,
2013-03-04 02:44:00,31.0,27.3,30.20,SSE,158,0.0,0.7,86,0.00,,,0.00,WUHU216HW,2013-03-04 01:44:00,
2013-03-04 02:49:00,31.0,27.3,30.20,SW,225,0.7,0.7,86,0.00,,,0.00,WUHU216HW,2013-03-04 01:49:00,
2013-03-04 02:54:00,31.0,27.3,30.19,SW,225,0.0,0.7,86,0.00,,,0.00,WUHU216HW,2013-03-04 01:54:00,
2013-03-04 02:59:00,31.0,27.3,30.19,WSW,248,0.7,0.7,86,0.00,,,0.00,WUHU216HW,2013-03-04 01:59:00,
2013-03-04 03:04:00,31.0,27.3,30.19,WSW,248,0.7,0.7,86,0.00,,,0.00,WUHU216HW,2013-03-04 02:04:00,
2013-03-04 03:09:00,31.0,27.3,30.19,WSW,248,0.7,0.7,86,0.00,,,0.00,WUHU216HW,2013-03-04 02:09:00,
2013-03-04 03:14:00,30.6,26.9,30.19,SSE,158,0.4,0.7,86,0.00,,,0.00,WUHU216HW,2013-03-04 02:14:00,
2013-03-04 03:19:00,30.2,26.6,30.19,SSE,158,0.4,0.7,86,0.00,,,0.00,WUHU216HW,2013-03-04 02:19:00,
2013-03-04 03:24:00,29.9,26.2,30.19,ESE,113,1.1,1.1,86,0.00,,,0.00,WUHU216HW,2013-03-04 02:24:00,
2013-03-04 03:29:00,29.7,26.0,30.20,SE,135,0.0,1.1,86,0.00,,,0.00,WUHU216HW,2013-03-04 02:29:00,
2013-03-04 03:34:00,29.5,25.8,30.20,SE,135,0.0,1.1,86,0.00,,,0.00,WUHU216HW,2013-03-04 02:34:00,
2013-03-04 03:39:00,29.5,25.8,30.20,ENE,68,1.6,1.6,86,0.00,,,0.00,WUHU216HW,2013-03-04 02:39:00,
2013-03-04 03:44:00,29.3,25.9,30.20,East,90,0.4,1.6,87,0.00,,,0.00,WUHU216HW,2013-03-04 02:44:00,
2013-03-04 03:49:00,29.3,25.7,30.20,ESE,113,0.9,1.6,86,0.00,,,0.00,WUHU216HW,2013-03-04 02:49:00,
2013-03-04 03:54:00,29.3,25.7,30.20,NE,45,0.7,0.9,86,0.00,,,0.00,WUHU216HW,2013-03-04 02:54:00,
2013-03-04 03:59:00,29.5,25.8,30.20,ENE,68,0.0,0.9,86,0.00,,,0.00,WUHU216HW,2013-03-04 02:59:00,
2013-03-04 04:04:00,29.7,26.3,30.20,ENE,68,0.0,0.7,87,0.00,,,0.00,WUHU216HW,2013-03-04 03:04:00,
2013-03-04 04:09:00,29.9,26.5,30.20,ENE,68,0.0,0.0,87,0.00,,,0.00,WUHU216HW,2013-03-04 03:09:00,
2013-03-04 04:14:00,29.9,26.5,30.20,ENE,68,0.0,0.2,87,0.00,,,0.00,WUHU216HW,2013-03-04 03:14:00,
2013-03-04 04:19:00,29.9,26.5,30.20,South,180,0.0,0.4,87,0.00,,,0.00,WUHU216HW,2013-03-04 03:19:00,
2013-03-04 04:24:00,29.9,26.5,30.20,South,180,0.0,0.4,87,0.00,,,0.00,WUHU216HW,2013-03-04 03:24:00,
2013-03-04 04:29:00,29.9,26.5,30.20,South,180,0.0,0.2,87,0.00,,,0.00,WUHU216HW,2013-03-04 03:29:00,
2013-03-04 04:34:00,30.1,26.6,30.20,South,180,0.0,0.0,87,0.00,,,0.00,WUHU216HW,2013-03-04 03:34:00,
2013-03-04 04:39:00,30.1,26.6,30.20,South,180,0.0,0.0,87,0.00,,,0.00,WUHU216HW,2013-03-04 03:39:00,
2013-03-04 04:44:00,30.1,26.6,30.20,South,180,0.0,0.0,87,0.00,,,0.00,WUHU216HW,2013-03-04 03:44:00,
2013-03-04 04:49:00,30.1,26.6,30.20,South,180,0.0,0.2,87,0.00,,,0.00,WUHU216HW,2013-03-04 03:49:00,
2013-03-04 04:54:00,30.1,26.6,30.20,South,180,0.4,0.7,87,0.00,,,0.00,WUHU216HW,2013-03-04 03:54:00,
2013-03-04 04:59:00,30.1,26.6,30.21,ESE,113,0.2,0.7,87,0.00,,,0.00,WUHU216HW,2013-03-04 03:59:00,
2013-03-04 05:04:00,30.2,27.2,30.21,North,0,0.0,0.4,88,0.00,,,0.00,WUHU216HW,2013-03-04 04:04:00,
2013-03-04 05:09:00,30.2,27.2,30.21,North,0,0.0,0.4,88,0.00,,,0.00,WUHU216HW,2013-03-04 04:09:00,
2013-03-04 05:14:00,30.2,27.2,30.21,ENE,68,0.4,0.4,88,0.00,,,0.00,WUHU216HW,2013-03-04 04:14:00,
2013-03-04 05:19:00,30.4,27.4,30.20,ENE,68,0.0,0.4,88,0.00,,,0.00,WUHU216HW,2013-03-04 04:19:00,
2013-03-04 05:24:00,30.4,27.4,30.21,ENE,68,0.0,0.4,88,0.00,,,0.00,WUHU216HW,2013-03-04 04:24:00,
2013-03-04 05:30:00,30.4,27.4,30.20,ENE,68,0.0,0.4,88,0.00,,,0.00,WUHU216HW,2013-03-04 04:30:00,
2013-03-04 05:35:00,30.4,27.4,30.20,SE,135,0.4,1.3,88,0.00,,,0.00,WUHU216HW,2013-03-04 04:35:00,
2013-03-04 05:40:00,30.6,27.6,30.20,NE,45,0.0,1.3,88,0.00,,,0.00,WUHU216HW,2013-03-04 04:40:00,
2013-03-04 05:45:00,30.6,27.6,30.20,NNE,23,0.0,0.9,88,0.00,,,0.00,WUHU216HW,2013-03-04 04:45:00,
2013-03-04 05:50:00,30.4,27.4,30.20,West,270,0.0,0.9,88,0.00,,,0.00,WUHU216HW,2013-03-04 04:50:00,
2013-03-04 05:55:00,30.6,27.6,30.21,West,270,0.0,0.0,88,0.00,,,0.00,WUHU216HW,2013-03-04 04:55:00,
2013-03-04 06:00:00,30.6,27.6,30.21,West,270,0.0,0.0,88,0.00,,,0.00,WUHU216HW,2013-03-04 05:00:00,
2013-03-04 06:05:00,30.6,27.6,30.21,West,270,0.0,0.0,88,0.00,,,0.00,WUHU216HW,2013-03-04 05:05:00,
2013-03-04 06:10:00,30.6,27.6,30.21,West,270,0.0,0.0,88,0.00,,,0.00,WUHU216HW,2013-03-04 05:10:00,
2013-03-04 06:15:00,30.6,27.6,30.21,West,270,0.0,0.0,88,0.00,,,0.00,WUHU216HW,2013-03-04 05:15:00,
2013-03-04 06:20:00,30.6,27.6,30.21,West,270,0.0,0.0,88,0.00,,,0.00,WUHU216HW,2013-03-04 05:20:00,
2013-03-04 06:25:00,30.6,27.6,30.21,West,270,0.0,0.0,88,0.00,,,0.00,WUHU216HW,2013-03-04 05:25:00,
2013-03-04 06:30:00,30.6,27.6,30.21,NNW,338,0.0,0.4,88,0.00,,,0.00,WUHU216HW,2013-03-04 05:30:00,
2013-03-04 06:35:00,30.6,27.6,30.21,NNW,338,0.0,0.4,88,0.00,,,0.00,WUHU216HW,2013-03-04 05:35:00,
2013-03-04 06:40:00,30.8,27.7,30.22,NNW,338,0.0,0.2,88,0.00,,,0.00,WUHU216HW,2013-03-04 05:40:00,
2013-03-04 06:45:00,30.8,27.7,30.22,NNW,338,0.0,0.0,88,0.00,,,0.00,WUHU216HW,2013-03-04 05:45:00,
2013-03-04 06:50:00,30.8,27.7,30.22,NNW,338,0.0,0.0,88,0.00,,,0.00,WUHU216HW,2013-03-04 05:50:00,
2013-03-04 06:55:00,30.6,27.6,30.22,NNW,338,0.0,0.4,88,0.00,,,0.00,WUHU216HW,2013-03-04 05:55:00,
2013-03-04 07:00:00,30.6,27.6,30.22,ENE,68,0.4,0.4,88,0.00,,,0.00,WUHU216HW,2013-03-04 06:00:00,
2013-03-04 07:05:00,30.6,27.6,30.22,ENE,68,0.0,0.4,88,0.00,,,0.00,WUHU216HW,2013-03-04 06:05:00,
2013-03-04 07:10:00,30.6,27.6,30.22,ENE,68,0.0,0.0,88,0.00,,,0.00,WUHU216HW,2013-03-04 06:10:00,
2013-03-04 07:15:00,30.8,27.7,30.22,ENE,68,0.0,0.0,88,0.00,,,0.00,WUHU216HW,2013-03-04 06:15:00,
2013-03-04 07:20:00,30.8,27.7,30.22,ENE,68,0.0,0.0,88,0.00,,,0.00,WUHU216HW,2013-03-04 06:20:00,
2013-03-04 07:25:00,30.8,27.7,30.23,ENE,68,0.0,0.0,88,0.00,,,0.00,WUHU216HW,2013-03-04 06:25:00,
2013-03-04 07:30:00,30.8,27.7,30.22,ENE,68,0.0,0.0,88,0.00,,,0.00,WUHU216HW,2013-03-04 06:30:00,
2013-03-04 07:35:00,30.8,27.4,30.23,ESE,113,0.4,0.4,87,0.00,,,0.00,WUHU216HW,2013-03-04 06:35:00,
2013-03-04 07:40:00,30.8,27.4,30.23,ESE,113,0.0,0.4,87,0.00,,,0.00,WUHU216HW,2013-03-04 06:40:00,
2013-03-04 07:45:00,31.0,27.5,30.23,ESE,113,0.0,0.7,87,0.00,,,0.00,WUHU216HW,2013-03-04 06:45:00,
2013-03-04 07:50:00,31.0,27.5,30.23,ESE,113,0.0,0.7,87,0.00,,,0.00,WUHU216HW,2013-03-04 06:50:00,
2013-03-04 07:55:00,31.0,27.5,30.23,ESE,113,0.0,0.0,87,0.00,,,0.00,WUHU216HW,2013-03-04 06:55:00,
2013-03-04 08:00:00,31.0,27.5,30.23,ESE,113,0.0,0.0,87,0.00,,,0.00,WUHU216HW,2013-03-04 07:00:00,
2013-03-04 08:05:00,31.1,27.7,30.23,ESE,113,0.0,0.0,87,0.00,,,0.00,WUHU216HW,2013-03-04 07:05:00,
2013-03-04 08:10:00,31.1,27.7,30.23,ESE,113,0.0,0.0,87,0.00,,,0.00,WUHU216HW,2013-03-04 07:10:00,
2013-03-04 08:15:00,31.3,27.9,30.23,ESE,113,0.0,0.0,87,0.00,,,0.00,WUHU216HW,2013-03-04 07:15:00,
2013-03-04 08:20:00,31.3,27.6,30.23,ESE,113,0.0,0.0,86,0.00,,,0.00,WUHU216HW,2013-03-04 07:20:00,
2013-03-04 08:25:00,31.3,27.6,30.23,ESE,113,0.0,0.7,86,0.00,,,0.00,WUHU216HW,2013-03-04 07:25:00,
2013-03-04 08:30:00,31.5,27.8,30.23,SSE,158,0.4,0.7,86,0.00,,,0.00,WUHU216HW,2013-03-04 07:30:00,
2013-03-04 08:35:00,31.7,28.0,30.23,SSE,158,0.0,0.4,86,0.00,,,0.00,WUHU216HW,2013-03-04 07:35:00,
2013-03-04 08:41:00,31.9,28.2,30.24,NW,315,0.2,0.4,86,0.00,,,0.00,WUHU216HW,2013-03-04 07:41:00,
2013-03-04 08:46:00,32.0,28.4,30.24,SSW,203,0.4,0.4,86,0.00,,,0.00,WUHU216HW,2013-03-04 07:46:00,
2013-03-04 08:51:00,32.0,28.4,30.23,North,0,0.4,0.4,86,0.00,,,0.00,WUHU216HW,2013-03-04 07:51:00,
2013-03-04 08:56:00,32.2,28.5,30.23,East,90,0.0,0.4,86,0.00,,,0.00,WUHU216HW,2013-03-04 07:56:00,
2013-03-04 09:01:00,32.4,28.7,30.23,SSE,158,0.4,0.4,86,0.00,,,0.00,WUHU216HW,2013-03-04 08:01:00,
2013-03-04 09:06:00,32.8,29.0,30.23,NNW,338,0.0,1.6,86,0.00,,,0.00,WUHU216HW,2013-03-04 08:06:00,
2013-03-04 09:11:00,32.9,29.4,30.23,WSW,248,0.7,1.6,87,0.00,,,0.00,WUHU216HW,2013-03-04 08:11:00,
2013-03-04 09:16:00,33.5,29.7,30.23,North,0,1.1,1.3,86,0.00,,,0.00,WUHU216HW,2013-03-04 08:16:00,
2013-03-04 09:21:00,33.8,30.0,30.23,WNW,293,0.2,1.3,86,0.00,,,0.00,WUHU216HW,2013-03-04 08:21:00,
2013-03-04 09:26:00,34.2,30.1,30.23,WNW,293,0.2,2.0,85,0.00,,,0.00,WUHU216HW,2013-03-04 08:26:00,
2013-03-04 09:31:00,34.6,30.4,30.23,North,0,0.2,2.0,85,0.00,,,0.00,WUHU216HW,2013-03-04 08:31:00,
2013-03-04 09:36:00,34.9,30.5,30.23,North,0,0.9,1.6,84,0.00,,,0.00,WUHU216HW,2013-03-04 08:36:00,
2013-03-04 09:41:00,35.5,31.1,30.23,NNW,338,0.0,1.6,84,0.00,,,0.00,WUHU216HW,2013-03-04 08:41:00,
2013-03-04 09:46:00,35.8,31.4,30.23,North,0,0.9,1.8,84,0.00,,,0.00,WUHU216HW,2013-03-04 08:46:00,
2013-03-04 09:51:00,36.2,31.1,30.23,ENE,68,0.4,1.8,82,0.00,,,0.00,WUHU216HW,2013-03-04 08:51:00,
2013-03-04 09:56:00,36.4,30.2,30.23,East,90,1.8,8.1,78,0.00,,,0.00,WUHU216HW,2013-03-04 08:56:00,
2013-03-04 10:01:00,36.7,29.2,30.23,East,90,1.8,8.1,74,0.00,,,0.00,WUHU216HW,2013-03-04 09:01:00,
2013-03-04 10:06:00,36.9,29.3,30.23,ESE,113,2.7,4.0,74,0.00,,,0.00,WUHU216HW,2013-03-04 09:06:00,
2013-03-04 10:11:00,37.1,30.3,30.24,SE,135,1.8,6.7,76,0.00,,,0.00,WUHU216HW,2013-03-04 09:11:00,
2013-03-04 10:16:00,37.1,30.5,30.23,SW,225,3.4,6.7,77,0.00,,,0.00,WUHU216HW,2013-03-04 09:16:00,
2013-03-04 10:21:00,37.1,29.9,30.23,WSW,248,0.7,4.3,75,0.00,,,0.00,WUHU216HW,2013-03-04 09:21:00,
2013-03-04 10:26:00,37.3,30.4,30.23,SE,135,1.8,4.7,76,0.00,,,0.00,WUHU216HW,2013-03-04 09:26:00,
2013-03-04 10:31:00,37.6,30.4,30.24,East,90,2.9,4.7,75,0.00,,,0.00,WUHU216HW,2013-03-04 09:31:00,
2013-03-04 10:36:00,37.8,30.6,30.24,SW,225,4.3,4.3,75,0.00,,,0.00,WUHU216HW,2013-03-04 09:36:00,
2013-03-04 10:41:00,38.2,31.2,30.24,SSW,203,2.2,4.3,76,0.00,,,0.00,WUHU216HW,2013-03-04 09:41:00,
2013-03-04 10:46:00,38.5,31.0,30.24,SSW,203,3.8,4.3,74,0.00,,,0.00,WUHU216HW,2013-03-04 09:46:00,
2013-03-04 10:51:00,38.7,31.8,30.24,SSW,203,2.9,3.8,76,0.00,,,0.00,WUHU216HW,2013-03-04 09:51:00,
2013-03-04 10:56:00,39.1,31.4,30.24,NW,315,0.9,3.8,74,0.00,,,0.00,WUHU216HW,2013-03-04 09:56:00,
2013-03-04 11:01:00,39.2,29.9,30.23,ESE,113,1.6,2.9,69,0.00,,,0.00,WUHU216HW,2013-03-04 10:01:00,
2013-03-04 11:06:00,39.2,30.2,30.23,East,90,1.1,4.5,70,0.00,,,0.00,WUHU216HW,2013-03-04 10:06:00,
2013-03-04 11:11:00,39.6,29.4,30.23,ESE,113,4.3,5.4,67,0.00,,,0.00,WUHU216HW,2013-03-04 10:11:00,
2013-03-04 11:16:00,39.2,29.1,30.23,ENE,68,1.6,6.3,67,0.00,,,0.00,WUHU216HW,2013-03-04 10:16:00,
2013-03-04 11:21:00,39.4,28.9,30.23,ESE,113,6.3,6.3,66,0.00,,,0.00,WUHU216HW,2013-03-04 10:21:00,
2013-03-04 11:26:00,39.2,28.7,30.23,ESE,113,4.0,6.3,66,0.00,,,0.00,WUHU216HW,2013-03-04 10:26:00,
2013-03-04 11:31:00,39.6,29.1,30.23,SE,135,6.5,6.7,66,0.00,,,0.00,WUHU216HW,2013-03-04 10:31:00,
2013-03-04 11:36:00,40.0,29.4,30.23,ESE,113,2.5,6.7,66,0.00,,,0.00,WUHU216HW,2013-03-04 10:36:00,
2013-03-04 11:41:00,40.3,30.2,30.23,East,90,0.7,6.5,67,0.00,,,0.00,WUHU216HW,2013-03-04 10:41:00,
2013-03-04 11:46:00,40.7,29.8,30.23,ESE,113,5.4,5.4,65,0.00,,,0.00,WUHU216HW,2013-03-04 10:46:00,
2013-03-04 11:51:00,40.9,31.2,30.23,SSW,203,0.4,5.4,68,0.00,,,0.00,WUHU216HW,2013-03-04 10:51:00,
2013-03-04 11:56:00,41.4,31.2,30.24,SW,225,1.3,5.4,67,0.00,,,0.00,WUHU216HW,2013-03-04 10:56:00,
2013-03-04 12:01:00,42.1,32.8,30.23,SSW,203,3.1,3.1,69,0.00,,,0.00,WUHU216HW,2013-03-04 11:01:00,
2013-03-04 12:06:00,43.0,31.2,30.23,SE,135,0.9,3.1,63,0.00,,,0.00,WUHU216HW,2013-03-04 11:06:00,
2013-03-04 12:11:00,43.0,30.9,30.23,SSE,158,3.1,3.1,62,0.00,,,0.00,WUHU216HW,2013-03-04 11:11:00,
2013-03-04 12:16:00,42.8,29.4,30.23,ESE,113,4.0,4.7,59,0.00,,,0.00,WUHU216HW,2013-03-04 11:16:00,
2013-03-04 12:21:00,42.3,29.4,30.23,ENE,68,4.9,5.1,60,0.00,,,0.00,WUHU216HW,2013-03-04 11:21:00,
2013-03-04 12:26:00,42.3,29.4,30.23,SE,135,2.7,5.6,60,0.00,,,0.00,WUHU216HW,2013-03-04 11:26:00,
2013-03-04 12:31:00,42.1,28.8,30.22,East,90,2.7,5.6,59,0.00,,,0.00,WUHU216HW,2013-03-04 11:31:00,
2013-03-04 12:36:00,41.9,29.1,30.22,SE,135,7.8,7.8,60,0.00,,,0.00,WUHU216HW,2013-03-04 11:36:00,
2013-03-04 12:41:00,42.1,30.0,30.22,SSE,158,4.5,7.8,62,0.00,,,0.00,WUHU216HW,2013-03-04 11:41:00,
2013-03-04 12:46:00,42.3,29.0,30.22,SSE,158,1.6,7.8,59,0.00,,,0.00,WUHU216HW,2013-03-04 11:46:00,
2013-03-04 12:51:00,42.5,28.7,30.22,ESE,113,3.8,5.1,58,0.00,,,0.00,WUHU216HW,2013-03-04 11:51:00,
2013-03-04 12:56:00,42.5,29.2,30.22,ENE,68,2.7,4.5,59,0.00,,,0.00,WUHU216HW,2013-03-04 11:56:00,
2013-03-04 13:01:00,42.5,29.5,30.22,NNE,23,0.4,7.2,60,0.00,,,0.00,WUHU216HW,2013-03-04 12:01:00,
2013-03-04 13:06:00,42.8,29.4,30.22,SE,135,2.9,7.2,59,0.00,,,0.00,WUHU216HW,2013-03-04 12:06:00,
2013-03-04 13:11:00,43.2,28.9,30.21,ESE,113,1.1,6.3,57,0.00,,,0.00,WUHU216HW,2013-03-04 12:11:00,
2013-03-04 13:16:00,43.6,30.2,30.21,SE,135,4.7,6.3,59,0.00,,,0.00,WUHU216HW,2013-03-04 12:16:00,
2013-03-04 13:21:00,43.9,28.3,30.21,ESE,113,6.7,6.9,54,0.00,,,0.00,WUHU216HW,2013-03-04 12:21:00,
2013-03-04 13:26:00,43.6,28.8,30.21,ESE,113,3.4,6.9,56,0.00,,,0.00,WUHU216HW,2013-03-04 12:26:00,
2013-03-04 13:31:00,43.4,27.8,30.21,East,90,3.6,6.7,54,0.00,,,0.00,WUHU216HW,2013-03-04 12:31:00,
2013-03-04 13:36:00,43.2,27.2,30.21,ESE,113,2.5,7.4,53,0.00,,,0.00,WUHU216HW,2013-03-04 12:36:00,
2013-03-04 13:41:00,43.4,28.7,30.21,NE,45,4.5,7.4,56,0.00,,,0.00,WUHU216HW,2013-03-04 12:41:00,
2013-03-04 13:46:00,43.6,28.0,30.20,ENE,68,3.1,6.7,54,0.00,,,0.00,WUHU216HW,2013-03-04 12:46:00,
2013-03-04 13:51:00,44.1,28.4,30.20,NE,45,4.7,6.7,54,0.00,,,0.00,WUHU216HW,2013-03-04 12:51:00,
2013-03-04 13:56:00,43.9,27.9,30.20,ESE,113,2.2,6.9,53,0.00,,,0.00,WUHU216HW,2013-03-04 12:56:00,
2013-03-04 14:01:00,43.6,28.0,30.20,SE,135,6.0,8.9,54,0.00,,,0.00,WUHU216HW,2013-03-04 13:01:00,
2013-03-04 14:06:00,43.4,27.8,30.20,East,90,3.8,8.9,54,0.00,,,0.00,WUHU216HW,2013-03-04 13:06:00,
2013-03-04 14:11:00,43.4,27.8,30.20,ESE,113,4.3,6.0,54,0.00,,,0.00,WUHU216HW,2013-03-04 13:11:00,
2013-03-04 14:16:00,43.6,28.5,30.20,ESE,113,3.6,4.7,55,0.00,,,0.00,WUHU216HW,2013-03-04 13:16:00,
2013-03-04 14:21:00,43.6,28.5,30.19,ESE,113,2.2,4.3,55,0.00,,,0.00,WUHU216HW,2013-03-04 13:21:00,
2013-03-04 14:26:00,43.9,28.3,30.19,ESE,113,2.2,4.7,54,0.00,,,0.00,WUHU216HW,2013-03-04 13:26:00,
2013-03-04 14:31:00,44.1,28.4,30.19,SE,135,4.7,4.7,54,0.00,,,0.00,WUHU216HW,2013-03-04 13:31:00,
2013-03-04 14:36:00,44.3,28.2,30.19,SE,135,0.9,7.6,53,0.00,,,0.00,WUHU216HW,2013-03-04 13:36:00,
2013-03-04 14:41:00,44.1,28.0,30.19,SE,135,3.4,7.6,53,0.00,,,0.00,WUHU216HW,2013-03-04 13:41:00,
2013-03-04 14:46:00,44.3,29.1,30.19,SW,225,3.4,3.4,55,0.00,,,0.00,WUHU216HW,2013-03-04 13:46:00,
2013-03-04 14:51:00,44.5,30.2,30.18,NE,45,1.1,3.4,57,0.00,,,0.00,WUHU216HW,2013-03-04 13:51:00,
2013-03-04 14:56:00,44.3,28.6,30.18,ENE,68,3.8,4.7,54,0.00,,,0.00,WUHU216HW,2013-03-04 13:56:00,
2013-03-04 15:01:00,44.3,29.1,30.18,North,0,1.1,4.7,55,0.00,,,0.00,WUHU216HW,2013-03-04 14:01:00,
2013-03-04 15:06:00,44.5,27.9,30.18,ESE,113,3.4,6.3,52,0.00,,,0.00,WUHU216HW,2013-03-04 14:06:00,
2013-03-04 15:11:00,44.1,28.0,30.18,SE,135,0.4,6.3,53,0.00,,,0.00,WUHU216HW,2013-03-04 14:11:00,
2013-03-04 15:16:00,44.1,28.4,30.18,SSE,158,3.8,3.8,54,0.00,,,0.00,WUHU216HW,2013-03-04 14:16:00,
2013-03-04 15:21:00,44.3,29.5,30.18,WSW,248,0.9,3.8,56,0.00,,,0.00,WUHU216HW,2013-03-04 14:21:00,
2013-03-04 15:26:00,44.5,30.2,30.18,SSW,203,4.0,4.0,57,0.00,,,0.00,WUHU216HW,2013-03-04 14:26:00,
2013-03-04 15:31:00,44.5,30.2,30.18,SSW,203,4.7,5.1,57,0.00,,,0.00,WUHU216HW,2013-03-04 14:31:00,
2013-03-04 15:36:00,44.6,28.5,30.17,NE,45,5.4,5.4,53,0.00,,,0.00,WUHU216HW,2013-03-04 14:36:00,
2013-03-04 15:41:00,44.3,27.7,30.17,East,90,6.5,6.5,52,0.00,,,0.00,WUHU216HW,2013-03-04 14:41:00,
2013-03-04 15:46:00,43.9,27.9,30.17,ESE,113,2.5,7.2,53,0.00,,,0.00,WUHU216HW,2013-03-04 14:46:00,
2013-03-04 15:51:00,43.7,27.7,30.17,ENE,68,1.3,7.2,53,0.00,,,0.00,WUHU216HW,2013-03-04 14:51:00,
2013-03-04 15:56:00,43.7,27.3,30.17,SE,135,4.7,5.4,52,0.00,,,0.00,WUHU216HW,2013-03-04 14:56:00,
2013-03-04 16:01:00,43.7,27.7,30.17,SE,135,4.0,5.8,53,0.00,,,0.00,WUHU216HW,2013-03-04 15:01:00,
2013-03-04 16:06:00,43.6,27.6,30.17,ESE,113,4.0,5.8,53,0.00,,,0.00,WUHU216HW,2013-03-04 15:06:00,
2013-03-04 16:11:00,43.6,27.6,30.17,East,90,2.0,6.0,53,0.00,,,0.00,WUHU216HW,2013-03-04 15:11:00,
2013-03-04 16:16:00,43.6,27.6,30.17,ESE,113,6.3,6.3,53,0.00,,,0.00,WUHU216HW,2013-03-04 15:16:00,
2013-03-04 16:21:00,43.6,27.6,30.17,ESE,113,1.8,6.3,53,0.00,,,0.00,WUHU216HW,2013-03-04 15:21:00,
2013-03-04 16:26:00,43.6,27.6,30.17,NE,45,1.3,6.3,53,0.00,,,0.00,WUHU216HW,2013-03-04 15:26:00,
2013-03-04 16:31:00,43.4,26.9,30.17,ESE,113,1.6,5.8,52,0.00,,,0.00,WUHU216HW,2013-03-04 15:31:00,
2013-03-04 16:36:00,43.4,26.9,30.17,ESE,113,1.8,5.8,52,0.00,,,0.00,WUHU216HW,2013-03-04 15:36:00,
2013-03-04 16:41:00,43.2,27.2,30.17,ENE,68,3.8,5.4,53,0.00,,,0.00,WUHU216HW,2013-03-04 15:41:00,
2013-03-04 16:46:00,43.0,27.5,30.17,East,90,1.1,5.4,54,0.00,,,0.00,WUHU216HW,2013-03-04 15:46:00,
2013-03-04 16:52:00,43.0,27.0,30.17,SE,135,0.2,4.0,53,0.00,,,0.00,WUHU216HW,2013-03-04 15:52:00,
2013-03-04 16:57:00,43.0,27.5,30.17,SE,135,0.0,4.0,54,0.00,,,0.00,WUHU216HW,2013-03-04 15:57:00,
2013-03-04 17:02:00,42.8,27.3,30.17,East,90,1.6,4.0,54,0.00,,,0.00,WUHU216HW,2013-03-04 16:02:00,
2013-03-04 17:07:00,42.8,26.8,30.17,SE,135,0.9,4.0,53,0.00,,,0.00,WUHU216HW,2013-03-04 16:07:00,
2013-03-04 17:12:00,42.7,27.5,30.17,ENE,68,1.1,1.8,55,0.00,,,0.00,WUHU216HW,2013-03-04 16:12:00,
2013-03-04 17:17:00,42.5,27.8,30.17,East,90,0.9,1.8,56,0.00,,,0.00,WUHU216HW,2013-03-04 16:17:00,
2013-03-04 17:22:00,42.1,27.5,30.17,NNE,23,0.4,1.8,56,0.00,,,0.00,WUHU216HW,2013-03-04 16:22:00,
2013-03-04 17:27:00,41.8,27.5,30.16,ESE,113,1.1,1.8,57,0.00,,,0.00,WUHU216HW,2013-03-04 16:27:00,
2013-03-04 17:32:00,41.6,27.5,30.17,ESE,113,1.1,1.6,57,0.00,,,0.00,WUHU216HW,2013-03-04 16:32:00,
2013-03-04 17:37:00,41.4,28.2,30.16,ESE,113,0.4,1.6,59,0.00,,,0.00,WUHU216HW,2013-03-04 16:37:00,
2013-03-04 17:42:00,41.0,27.8,30.16,ESE,113,0.7,1.8,59,0.00,,,0.00,WUHU216HW,2013-03-04 16:42:00,
2013-03-04 17:47:00,40.7,27.9,30.17,ESE,113,0.9,1.8,60,0.00,,,0.00,WUHU216HW,2013-03-04 16:47:00,
2013-03-04 17:52:00,40.0,27.5,30.17,SE,135,0.4,1.3,61,0.00,,,0.00,WUHU216HW,2013-03-04 16:52:00,
2013-03-04 17:57:00,39.6,27.5,30.16,SE,135,0.4,1.1,62,0.00,,,0.00,WUHU216HW,2013-03-04 16:57:00,
2013-03-04 18:02:00,38.9,27.3,30.16,ESE,113,1.1,1.1,63,0.00,,,0.00,WUHU216HW,2013-03-04 17:02:00,
2013-03-04 18:07:00,38.5,26.9,30.17,SE,135,0.7,1.1,63,0.00,,,0.00,WUHU216HW,2013-03-04 17:07:00,
2013-03-04 18:13:00,38.0,26.5,30.17,SE,135,0.7,1.6,63,0.00,,,0.00,WUHU216HW,2013-03-04 17:13:00,
2013-03-04 18:18:00,37.6,26.6,30.17,ESE,113,0.4,1.3,64,0.00,,,0.00,WUHU216HW,2013-03-04 17:18:00,
2013-03-04 18:23:00,37.1,26.4,30.17,SE,135,1.8,1.8,65,0.00,,,0.00,WUHU216HW,2013-03-04 17:23:00,
2013-03-04 18:28:00,36.7,26.5,30.17,ESE,113,2.0,2.0,66,0.00,,,0.00,WUHU216HW,2013-03-04 17:28:00,
2013-03-04 18:33:00,36.4,26.1,30.17,SE,135,0.7,2.0,66,0.00,,,0.00,WUHU216HW,2013-03-04 17:33:00,
2013-03-04 20:17:00,32.8,25.4,30.16,SSE,158,0.7,0.7,74,0.00,,,0.00,WUHU216HW,2013-03-04 19:17:00,
2013-03-04 20:22:00,32.6,25.2,30.17,SSW,203,0.0,1.6,74,0.00,,,0.00,WUHU216HW,2013-03-04 19:22:00,
2013-03-04 20:27:00,32.4,25.0,30.17,ENE,68,1.6,1.6,74,0.00,,,0.00,WUHU216HW,2013-03-04 19:27:00,
2013-03-04 20:32:00,32.6,25.5,30.17,SSE,158,0.0,1.6,75,0.00,,,0.00,WUHU216HW,2013-03-04 19:32:00,
2013-03-04 20:37:00,32.6,25.2,30.17,SW,225,0.9,1.6,74,0.00,,,0.00,WUHU216HW,2013-03-04 19:37:00,
2013-03-04 20:42:00,32.6,25.2,30.17,SSE,158,1.1,1.1,74,0.00,,,0.00,WUHU216HW,2013-03-04 19:42:00,
2013-03-04 20:47:00,32.6,25.2,30.17,NE,45,0.0,1.1,74,0.00,,,0.00,WUHU216HW,2013-03-04 19:47:00,
2013-03-04 20:52:00,32.4,25.0,30.17,SSE,158,0.9,1.1,74,0.00,,,0.00,WUHU216HW,2013-03-04 19:52:00,
2013-03-04 20:57:00,32.4,25.0,30.17,NNE,23,0.4,2.2,74,0.00,,,0.00,WUHU216HW,2013-03-04 19:57:00,
2013-03-04 21:02:00,32.6,25.2,30.17,ESE,113,0.0,2.2,74,0.00,,,0.00,WUHU216HW,2013-03-04 20:02:00,
2013-03-04 21:07:00,32.4,25.4,30.17,East,90,2.5,2.5,75,0.00,,,0.00,WUHU216HW,2013-03-04 20:07:00,
2013-03-04 21:12:00,32.4,25.4,30.17,SE,135,1.3,2.5,75,0.00,,,0.00,WUHU216HW,2013-03-04 20:12:00,
2013-03-04 21:17:00,32.2,25.2,30.17,SE,135,1.8,2.5,75,0.00,,,0.00,WUHU216HW,2013-03-04 20:17:00,
2013-03-04 21:22:00,32.0,25.0,30.17,SSE,158,1.6,2.5,75,0.00,,,0.00,WUHU216HW,2013-03-04 20:22:00,
2013-03-04 21:27:00,32.0,25.0,30.17,SSE,158,0.2,1.8,75,0.00,,,0.00,WUHU216HW,2013-03-04 20:27:00,
2013-03-04 21:32:00,32.0,25.4,30.17,SE,135,0.0,1.6,76,0.00,,,0.00,WUHU216HW,2013-03-04 20:32:00,
2013-03-04 21:37:00,31.7,25.0,30.17,SE,135,1.1,1.6,76,0.00,,,0.00,WUHU216HW,2013-03-04 20:37:00,
2013-03-04 21:42:00,31.7,25.0,30.17,SE,135,0.2,1.6,76,0.00,,,0.00,WUHU216HW,2013-03-04 20:42:00,
2013-03-04 21:47:00,31.5,24.9,30.17,SSE,158,0.9,1.8,76,0.00,,,0.00,WUHU216HW,2013-03-04 20:47:00,
2013-03-04 21:52:00,31.3,24.7,30.17,SSE,158,0.7,1.8,76,0.00,,,0.00,WUHU216HW,2013-03-04 20:52:00,
2013-03-04 21:57:00,31.1,24.8,30.16,SSE,158,0.4,1.8,77,0.00,,,0.00,WUHU216HW,2013-03-04 20:57:00,
2013-03-04 22:02:00,31.0,24.6,30.16,ESE,113,0.4,1.3,77,0.00,,,0.00,WUHU216HW,2013-03-04 21:02:00,
2013-03-04 22:08:00,31.0,24.6,30.16,SSW,203,0.9,1.3,77,0.00,,,0.00,WUHU216HW,2013-03-04 21:08:00,
2013-03-04 22:13:00,31.1,25.1,30.16,ESE,113,0.4,2.5,78,0.00,,,0.00,WUHU216HW,2013-03-04 21:13:00,
2013-03-04 22:18:00,31.3,24.9,30.16,SE,135,0.9,2.5,77,0.00,,,0.00,WUHU216HW,2013-03-04 21:18:00,
2013-03-04 22:23:00,31.3,24.9,30.16,ENE,68,1.1,1.8,77,0.00,,,0.00,WUHU216HW,2013-03-04 21:23:00,
2013-03-04 22:28:00,31.1,24.8,30.16,SE,135,0.0,1.1,77,0.00,,,0.00,WUHU216HW,2013-03-04 21:28:00,
2013-03-04 22:33:00,31.0,24.6,30.16,SSE,158,0.4,1.1,77,0.00,,,0.00,WUHU216HW,2013-03-04 21:33:00,
2013-03-04 22:38:00,30.8,24.4,30.16,SSE,158,0.2,1.1,77,0.00,,,0.00,WUHU216HW,2013-03-04 21:38:00,
2013-03-04 22:43:00,30.8,24.8,30.16,SSE,158,0.0,0.9,78,0.00,,,0.00,WUHU216HW,2013-03-04 21:43:00,
2013-03-04 22:48:00,30.6,24.6,30.15,East,90,0.4,0.9,78,0.00,,,0.00,WUHU216HW,2013-03-04 21:48:00,
2013-03-04 22:53:00,30.6,24.6,30.16,SE,135,0.9,0.9,78,0.00,,,0.00,WUHU216HW,2013-03-04 21:53:00,
2013-03-04 22:58:00,30.6,24.6,30.16,SSE,158,1.1,1.1,78,0.00,,,0.00,WUHU216HW,2013-03-04 21:58:00,
2013-03-04 23:03:00,30.4,24.4,30.15,SE,135,0.2,1.1,78,0.00,,,0.00,WUHU216HW,2013-03-04 22:03:00,
2013-03-04 23:08:00,30.2,24.2,30.15,SE,135,0.7,1.1,78,0.00,,,0.00,WUHU216HW,2013-03-04 22:08:00,
2013-03-04 23:13:00,30.1,24.0,30.15,SSW,203,0.4,1.1,78,0.00,,,0.00,WUHU216HW,2013-03-04 22:13:00,
2013-03-04 23:18:00,29.9,23.9,30.15,SSW,203,0.0,1.1,78,0.00,,,0.00,WUHU216HW,2013-03-04 22:18:00,
2013-03-04 23:23:00,29.9,23.9,30.15,ENE,68,0.0,1.1,78,0.00,,,0.00,WUHU216HW,2013-03-04 22:23:00,
2013-03-04 23:28:00,29.9,24.1,30.15,SE,135,0.0,1.3,79,0.00,,,0.00,WUHU216HW,2013-03-04 22:28:00,
2013-03-04 23:33:00,29.7,23.9,30.15,ESE,113,0.4,1.3,79,0.00,,,0.00,WUHU216HW,2013-03-04 22:33:00,
2013-03-04 23:38:00,29.5,23.8,30.15,SW,225,0.0,0.4,79,0.00,,,0.00,WUHU216HW,2013-03-04 22:38:00,
2013-03-04 23:43:00,29.3,23.7,30.14,SSW,203,0.2,0.4,79,0.00,,,0.00,WUHU216HW,2013-03-04 22:43:00,
2013-03-04 23:48:00,29.3,23.7,30.15,South,180,0.9,0.9,79,0.00,,,0.00,WUHU216HW,2013-03-04 22:48:00,
2013-03-04 23:53:00,29.2,23.5,30.15,SE,135,0.7,0.9,79,0.00,,,0.00,WUHU216HW,2013-03-04 22:53:00,
2013-03-04 23:58:00,29.2,23.5,30.15,SE,135,0.4,0.9,79,0.00,,,0.00,WUHU216HW,2013-03-04 22:58:00,